Regional Weather Roundup
Issued by NWS Charleston, WV

Home | Current Version | Previous Version | Text Only | Print | Product List | Glossary Off
Versions: 1 2 3 4 5 6 7 8 9 10 11 12 13 14 15 16 17 18 19 20 21 22 23 24 25 26 27

000
ASUS41 KRLX 242010
RWRRLX
West Virginia Regional Weather Roundup
National Weather Service Charleston WV
400 PM EDT SUN SEP 24 2017

Note: "fair" indicates few or no clouds below 12,000 feet with no
significant weather and/or obstructions to visibility.

WVZ003-242100-
Northern Panhandle of West Virginia

CITY           SKY/WX    TMP DP  RH WIND       PRES   REMARKS
WHEELING       SUNNY     87  58  37 NE6       30.11F
$$

WVZ009-242100-
Northwest West Virginia

CITY           SKY/WX    TMP DP  RH WIND       PRES   REMARKS
PARKERSBURG    SUNNY     89  61  38 E8        30.10F
$$

WVZ006-242100-
Western West Virginia

CITY           SKY/WX    TMP DP  RH WIND       PRES   REMARKS
HUNTINGTON     SUNNY     87  56  34 VRB5      30.06F
$$

WVZ015-242100-
West Central West Virginia

CITY           SKY/WX    TMP DP  RH WIND       PRES   REMARKS
CHARLESTON     MOSUNNY   89  55  31 CALM      30.06F
$$

WVZ022-031-242100-
North Central West Virginia

CITY           SKY/WX    TMP DP  RH WIND       PRES   REMARKS
CLARKSBURG     SUNNY     88  60  38 E6        30.09F
MORGANTOWN     MOSUNNY   88  60  38 N7        30.10F
$$

WVZ025-035-042-045-242100-
Southern West Virginia

CITY           SKY/WX    TMP DP  RH WIND       PRES   REMARKS
BECKLEY        SUNNY     82  50  32 SE8       30.14F
LOGAN            N/A     84  61  45 CALM      30.09F
BLUEFIELD      SUNNY     79  49  34 VRB5      30.17F
LEWISBURG      SUNNY     83  54  36 SE6       30.14S
$$

WVZ047-242100-
Northern Mountains of West Virginia

CITY           SKY/WX    TMP DP  RH WIND       PRES   REMARKS
ELKINS         SUNNY     86  55  34 VRB6      30.13F
$$

WVZ052-242100-
Eastern Panhandle of West Virginia

CITY           SKY/WX    TMP DP  RH WIND       PRES   REMARKS
MARTINSBURG    PTSUNNY   89  63  41 NE7       30.06F
PETERSBURG     SUNNY     92  61  36 NE6       30.07F
$$




USA.gov is the U.S. government's official web portal to all federal, state and local government web resources and services.